• In Uzbekistan
  • List of Countries
  • For 7 days
  • Water Temperature
  • Satellite Maps
  • Weather Map
  • Weather Widgets
  • user-avatar
    Login

    Hourly Weather Altena

    Today, 21 September, Thursday

    Time Temperature Precipitation Wind Pressure Humidity
    00:00 +10°C° 0 mm 1 mps 743 mmHg 85%
    01:00 +10°C° 0 mm 1 mps 743 mmHg 83%
    02:00 +10°C° 0 mm 1 mps 743 mmHg 84%
    03:00 +10°C° 0 mm 1 mps 743 mmHg 85%
    04:00 +9°C° 0 mm 1 mps 743 mmHg 86%
    05:00 +9°C° 0 mm 1 mps 743 mmHg 86%
    06:00 +10°C° 0 mm 1 mps 743 mmHg 86%
    07:00 +10°C° 0 mm 1 mps 743 mmHg 84%
    08:00 +12°C° 0 mm 1 mps 743 mmHg 77%
    09:00 +14°C° 0 mm 1 mps 743 mmHg 71%
    10:00 +16°C° 0 mm 2 mps 743 mmHg 64%
    11:00 +18°C° 0 mm 1 mps 743 mmHg 59%
    12:00 +19°C° 0 mm 1 mps 743 mmHg 54%
    13:00 +20°C° 0 mm 1 mps 743 mmHg 50%
    14:00 +20°C° 0 mm 1 mps 742 mmHg 50%
    15:00 +20°C° 0 mm 1 mps 742 mmHg 50%
    16:00 +20°C° 0 mm 1 mps 742 mmHg 51%
    17:00 +19°C° 0 mm 1 mps 742 mmHg 57%
    18:00 +16°C° 0 mm 1 mps 742 mmHg 64%
    19:00 +14°C° 0 mm 1 mps 742 mmHg 70%
    20:00 +14°C° 0 mm 1 mps 742 mmHg 72%
    21:00 +13°C° 0 mm 1 mps 742 mmHg 73%
    22:00 +12°C° 0 mm 1 mps 743 mmHg 75%
    23:00 +12°C° 0 mm 1 mps 743 mmHg 75%

    Tomorrow, 22 September, Friday

    Time Temperature Precipitation Wind Pressure Humidity
    00:00 +12°C° 0 mm 1 mps 743 mmHg 75%
    01:00 +12°C° 0 mm 1 mps 743 mmHg 75%
    02:00 +11°C° 0 mm 1 mps 742 mmHg 75%
    03:00 +11°C° 0 mm 1 mps 742 mmHg 76%
    04:00 +11°C° 0 mm 1 mps 742 mmHg 77%
    05:00 +11°C° 0 mm 1 mps 742 mmHg 77%
    06:00 +11°C° 0 mm 1 mps 742 mmHg 77%
    07:00 +11°C° 0 mm 1 mps 742 mmHg 77%
    08:00 +13°C° 0 mm 1 mps 742 mmHg 70%
    09:00 +15°C° 0 mm 1 mps 743 mmHg 64%
    10:00 +18°C° 0 mm 1 mps 743 mmHg 57%
    11:00 +19°C° 0 mm 1 mps 743 mmHg 54%
    12:00 +20°C° 0 mm 1 mps 743 mmHg 51%
    13:00 +21°C° 0 mm 1 mps 743 mmHg 47%
    14:00 +21°C° 0 mm 1 mps 743 mmHg 50%
    15:00 +21°C° 0 mm 1 mps 743 mmHg 52%
    16:00 +20°C° 0 mm 1 mps 743 mmHg 54%
    17:00 +19°C° 0 mm 1 mps 743 mmHg 60%
    18:00 +18°C° 0 mm 1 mps 743 mmHg 65%
    19:00 +14°C° 0 mm 0 mps 743 mmHg 70%
    20:00 +14°C° 0 mm 0 mps 744 mmHg 72%
    21:00 +13°C° 0 mm 0 mps 744 mmHg 74%
    22:00 +13°C° 0 mm 0 mps 744 mmHg 76%
    23:00 +12°C° 0 mm 0 mps 744 mmHg 79%

    Day after tomorrow, 23 September, Saturday

    Time Temperature Precipitation Wind Pressure Humidity
    00:00 +12°C° 0 mm 0 mps 744 mmHg 81%
    01:00 +13°C° 0 mm 1 mps 744 mmHg 84%
    02:00 +12°C° 0 mm 1 mps 745 mmHg 86%
    03:00 +12°C° 0 mm 1 mps 745 mmHg 88%
    04:00 +11°C° 0 mm 1 mps 745 mmHg 89%
    05:00 +11°C° 0 mm 1 mps 745 mmHg 90%
    06:00 +11°C° 0 mm 1 mps 745 mmHg 90%
    07:00 +10°C° 0 mm 0 mps 745 mmHg 91%
    08:00 +13°C° 0 mm 1 mps 745 mmHg 85%
    09:00 +15°C° 0 mm 1 mps 745 mmHg 79%
    10:00 +16°C° 0 mm 1 mps 745 mmHg 73%
    11:00 +18°C° 0.1 mm 1 mps 745 mmHg 70%
    12:00 +19°C° 0.1 mm 1 mps 745 mmHg 67%
    13:00 +20°C° 0.1 mm 1 mps 745 mmHg 64%
    14:00 +20°C° 0.2 mm 1 mps 744 mmHg 65%
    15:00 +20°C° 0.2 mm 1 mps 744 mmHg 65%
    16:00 +20°C° 0.2 mm 1 mps 744 mmHg 65%
    17:00 +18°C° 0.1 mm 1 mps 744 mmHg 70%
    18:00 +16°C° 0.1 mm 1 mps 744 mmHg 75%
    19:00 +15°C° 0.1 mm 1 mps 744 mmHg 79%
    20:00 +14°C° 0 mm 1 mps 744 mmHg 82%
    21:00 +14°C° 0 mm 1 mps 744 mmHg 84%
    22:00 +13°C° 0 mm 1 mps 744 mmHg 86%
    23:00 +13°C° 0 mm 1 mps 744 mmHg 87%

    24 September, Sunday

    Time Temperature Precipitation Wind Pressure Humidity
    00:00 +13°C° 0 mm 1 mps 744 mmHg 88%
    01:00 +12°C° 0 mm 1 mps 744 mmHg 88%
    02:00 +12°C° 0 mm 1 mps 744 mmHg 89%
    03:00 +12°C° 0 mm 1 mps 744 mmHg 89%
    04:00 +11°C° 0 mm 1 mps 744 mmHg 89%
    05:00 +11°C° 0 mm 1 mps 744 mmHg 89%
    06:00 +11°C° 0 mm 1 mps 744 mmHg 88%
    07:00 +11°C° 0 mm 1 mps 744 mmHg 88%
    08:00 +13°C° 0 mm 1 mps 744 mmHg 81%
    09:00 +15°C° 0 mm 1 mps 744 mmHg 74%
    10:00 +18°C° 0 mm 1 mps 744 mmHg 68%
    11:00 +17°C° 0 mm 2 mps 744 mmHg 64%
    12:00 +18°C° 0 mm 2 mps 743 mmHg 59%
    13:00 +19°C° 0 mm 2 mps 743 mmHg 55%
    14:00 +18°C° 0 mm 2 mps 743 mmHg 59%
    15:00 +18°C° 0 mm 2 mps 743 mmHg 62%
    16:00 +18°C° 0 mm 2 mps 743 mmHg 66%
    17:00 +16°C° 0 mm 2 mps 743 mmHg 73%
    18:00 +15°C° 0 mm 2 mps 743 mmHg 80%
    19:00 +14°C° 0 mm 1 mps 743 mmHg 87%
    20:00 +14°C° 0 mm 1 mps 742 mmHg 88%
    21:00 +13°C° 0 mm 1 mps 742 mmHg 90%
    22:00 +13°C° 0 mm 1 mps 742 mmHg 92%
    23:00 +13°C° 0 mm 1 mps 742 mmHg 92%

    25 September, Monday

    Time Temperature Precipitation Wind Pressure Humidity
    00:00 +13°C° 0 mm 1 mps 742 mmHg 93%
    01:00 +12°C° 0 mm 1 mps 742 mmHg 94%
    02:00 +13°C° 0.1 mm 1 mps 741 mmHg 94%
    03:00 +13°C° 0.1 mm 1 mps 741 mmHg 94%
    04:00 +13°C° 0.1 mm 1 mps 741 mmHg 95%
    05:00 +13°C° 0.1 mm 1 mps 741 mmHg 95%
    06:00 +13°C° 0.1 mm 1 mps 741 mmHg 94%
    07:00 +13°C° 0.1 mm 1 mps 741 mmHg 94%
    08:00 +14°C° 0.1 mm 2 mps 741 mmHg 90%
    09:00 +14°C° 0.1 mm 2 mps 741 mmHg 86%
    10:00 +15°C° 0.1 mm 2 mps 741 mmHg 81%
    11:00 +16°C° 0 mm 2 mps 741 mmHg 76%
    12:00 +17°C° 0 mm 2 mps 741 mmHg 71%
    13:00 +18°C° 0 mm 2 mps 741 mmHg 66%
    14:00 +18°C° 0.1 mm 2 mps 741 mmHg 67%
    15:00 +18°C° 0.1 mm 2 mps 741 mmHg 67%
    16:00 +18°C° 0.1 mm 2 mps 740 mmHg 67%
    17:00 +16°C° 0 mm 2 mps 740 mmHg 73%
    18:00 +15°C° 0 mm 2 mps 741 mmHg 78%
    19:00 +14°C° 0 mm 2 mps 741 mmHg 83%
    20:00 +14°C° 0 mm 2 mps 741 mmHg 85%
    21:00 +13°C° 0 mm 2 mps 741 mmHg 86%
    22:00 +12°C° 0 mm 2 mps 741 mmHg 88%
    23:00 +12°C° 0 mm 2 mps 741 mmHg 88%

    26 September, Tuesday

    Time Temperature Precipitation Wind Pressure Humidity
    00:00 +12°C° 0 mm 1 mps 741 mmHg 89%
    01:00 +11°C° 0 mm 1 mps 741 mmHg 89%
    02:00 +11°C° 0 mm 1 mps 741 mmHg 89%
    03:00 +11°C° 0 mm 1 mps 741 mmHg 89%
    04:00 +10°C° 0 mm 1 mps 741 mmHg 90%
    05:00 +10°C° 0 mm 1 mps 741 mmHg 90%
    06:00 +10°C° 0 mm 1 mps 741 mmHg 90%
    07:00 +10°C° 0 mm 1 mps 741 mmHg 90%
    08:00 +12°C° 0 mm 1 mps 741 mmHg 83%
    09:00 +14°C° 0 mm 1 mps 741 mmHg 76%
    10:00 +16°C° 0 mm 1 mps 741 mmHg 69%
    11:00 +18°C° 0 mm 1 mps 741 mmHg 65%
    12:00 +19°C° 0 mm 1 mps 741 mmHg 61%
    13:00 +20°C° 0 mm 1 mps 741 mmHg 58%
    14:00 +20°C° 0.1 mm 1 mps 741 mmHg 58%
    15:00 +20°C° 0.1 mm 1 mps 741 mmHg 58%
    16:00 +20°C° 0.1 mm 1 mps 741 mmHg 58%
    17:00 +19°C° 0 mm 1 mps 741 mmHg 65%
    18:00 +16°C° 0 mm 1 mps 742 mmHg 71%
    19:00 +15°C° 0 mm 1 mps 742 mmHg 77%
    20:00 +14°C° 0 mm 1 mps 742 mmHg 80%
    21:00 +14°C° 0 mm 1 mps 742 mmHg 83%
    22:00 +13°C° 0 mm 1 mps 742 mmHg 85%
    23:00 +13°C° 0 mm 1 mps 742 mmHg 86%
    Show more